This demonstration page uses our WeatherBlox Daily Observations layout. Learn more.

Left ArrowRight Arrow

Hourly Observations for September 15, 2017

Temp ( °F °C ) Dew Point ( °F °C ) Humidity (%) Winds ( mph kmh ) Pressure ( in mb ) Visibility ( mi km ) Precip ( " mm )
12:10 am 00:10 Clear 57 14 55 13 94 94 SSW 5 7 30 1016 10 16.0934 N/A
12:30 am 00:30 Clear 54 12 54 12 100 100 Calm 30 1016 7 11.26538 N/A
12:50 am 00:50 Clear 55 13 55 13 100 100 Calm 30 1016 7 11.26538 N/A
1:10 am 01:10 Clear 55 13 54 12 94 94 Calm 30 1016 7 11.26538 N/A
1:31 am 01:31 Clear 54 12 54 12 100 100 SSE 3 6 30.03 1017 5 8.0467 N/A
1:50 am 01:50 Clear 54 12 52 11 94 94 SSE 3 6 30.03 1017 2.5 4.02335 N/A
2:10 am 02:10 Mostly Cloudy 54 12 54 12 100 100 Calm 30.03 1017 1.5 2.41401 N/A
2:31 am 02:31 Mostly Cloudy 54 12 52 11 94 94 Calm 30.03 1017 1.25 2.011675 N/A
2:50 am 02:50 Mostly Cloudy 52 11 52 11 100 100 Calm 30.06 1018 0.5 0.80467 N/A
3:10 am 03:10 Clear 54 12 54 12 100 100 SSE 5 7 30.03 1017 4 6.43736 N/A
3:31 am 03:31 Clear 54 12 54 12 100 100 Calm 30.03 1017 2.5 4.02335 N/A
3:50 am 03:50 Mostly Cloudy 54 12 54 12 100 100 SE 3 6 30.03 1017 1 1.60934 N/A
4:10 am 04:10 Clear 54 12 54 12 100 100 Calm 30.03 1017 4 6.43736 N/A
4:30 am 04:30 Clear 55 13 55 13 100 100 SSE 3 6 30.03 1017 4 6.43736 N/A
4:50 am 04:50 Clear 55 13 55 13 100 100 SSE 3 6 30.03 1017 5 8.0467 N/A
5:10 am 05:10 Clear 55 13 55 13 100 100 SSE 5 7 30.03 1017 5 8.0467 N/A
5:30 am 05:30 Clear 55 13 55 13 100 100 SSE 3 6 30.03 1017 5 8.0467 N/A
5:50 am 05:50 Clear 55 13 55 13 100 100 SSE 3 6 30.03 1017 3 4.82802 N/A
6:10 am 06:10 Clear 54 12 54 12 100 100 Calm 30.09 1019 2 3.21868 N/A
6:30 am 06:30 Mostly Cloudy 52 11 52 11 100 100 SSE 3 6 30.09 1019 0.25 0.402335 N/A
6:50 am 06:50 Clear 55 13 55 13 100 100 SSE 5 7 30.06 1018 2 3.21868 N/A
7:10 am 07:10 Clear 55 13 55 13 100 100 SSE 3 6 30.06 1018 2.5 4.02335 N/A
7:30 am 07:30 Mostly Cloudy 54 12 54 12 100 100 Calm 30.12 1020 0.5 0.80467 N/A
7:50 am 07:50 Mostly Cloudy 52 11 50 10 94 94 Calm 30.12 1020 0.25 0.402335 N/A
8:10 am 08:10 Mostly Cloudy 52 11 52 11 100 100 Calm 30.12 1020 5 8.0467 N/A
8:30 am 08:30 Mostly Cloudy 54 12 54 12 100 100 Calm 30.12 1020 1 1.60934 N/A
8:50 am 08:50 Sunny 59 15 59 15 100 100 SE 3 6 30.09 1019 2 3.21868 N/A
9:10 am 09:10 Sunny 61 16 61 16 100 100 SSE 6 9 30.09 1019 3 4.82802 N/A
9:30 am 09:30 Sunny 63 17 61 16 94 94 S 3 6 30.09 1019 5 8.0467 N/A
9:50 am 09:50 Sunny 64 18 63 17 94 94 S 6 9 30.12 1020 7 11.26538 N/A
10:10 am 10:10 Sunny 66 19 63 17 88 88 SSE 5 7 30.12 1020 10 16.0934 N/A
10:30 am 10:30 Sunny 68 20 63 17 83 83 S 6 9 30.12 1020 10 16.0934 N/A
10:50 am 10:50 Sunny 70 21 64 18 83 83 SSE 5 7 30.12 1020 10 16.0934 N/A
11:10 am 11:10 Sunny 70 21 64 18 83 83 S 3 6 30.12 1020 10 16.0934 N/A
11:30 am 11:30 Sunny 72 22 64 18 78 78 S 7 11 30.09 1019 10 16.0934 N/A
11:50 am 11:50 Sunny 73 23 63 17 69 69 SSE 6 9 30.09 1019 10 16.0934 N/A
12:10 pm 12:10 Sunny 73 23 63 17 69 69 SSE 5 7 30.09 1019 10 16.0934 N/A
12:31 pm 12:31 Sunny 75 24 63 17 65 65 SSE 5 7 30.06 1018 10 16.0934 N/A
12:50 pm 12:50 Sunny 77 25 61 16 57 57 SSE 6 9 30.06 1018 10 16.0934 N/A
1:10 pm 13:10 Partly Cloudy 77 25 61 16 57 57 SE 5 7 30.06 1018 10 16.0934 N/A
1:30 pm 13:30 Partly Cloudy 75 24 61 16 61 61 ESE 5 7 30.06 1018 10 16.0934 N/A
1:50 pm 13:50 Mostly Cloudy 77 25 61 16 57 57 S 6 9 30.06 1018 10 16.0934 N/A
2:10 pm 14:10 Partly Cloudy 75 24 61 16 61 61 Calm 30.06 1018 10 16.0934 N/A
2:30 pm 14:30 Mostly Cloudy 77 25 61 16 57 57 Calm 30.06 1018 10 16.0934 N/A
2:50 pm 14:50 Partly Cloudy 79 26 61 16 54 54 SSW 3 6 30.06 1018 10 16.0934 N/A
3:11 pm 15:11 Partly Cloudy 79 26 61 16 54 54 E 5 7 30.03 1017 10 16.0934 N/A
3:30 pm 15:30 Mostly Cloudy 81 27 61 16 51 51 E 6 9 30.03 1017 10 16.0934 N/A
3:50 pm 15:50 Mostly Cloudy 81 27 59 15 48 48 SSE 5 7 30.03 1017 10 16.0934 N/A
4:11 pm 16:11 Partly Cloudy 81 27 59 15 48 48 SW 6 9 30.03 1017 10 16.0934 N/A
4:30 pm 16:30 Partly Cloudy 82 28 59 15 45 45 WSW 5 7 30.03 1017 10 16.0934 N/A
4:50 pm 16:50 Partly Cloudy 82 28 59 15 45 45 S 6 9 30.03 1017 10 16.0934 N/A
5:11 pm 17:11 Partly Cloudy 82 28 59 15 45 45 Calm 30.03 1017 10 16.0934 N/A
5:30 pm 17:30 Partly Cloudy 82 28 59 15 45 45 S 3 6 30.03 1017 10 16.0934 N/A
5:51 pm 17:51 Mostly Cloudy 81 27 59 15 48 48 SSE 3 6 30.03 1017 10 16.0934 N/A
6:10 pm 18:10 Partly Cloudy 81 27 59 15 48 48 S 5 7 30.03 1017 10 16.0934 N/A
6:30 pm 18:30 Sunny 81 27 59 15 48 48 SSW 3 6 30.03 1017 10 16.0934 N/A
6:50 pm 18:50 Sunny 79 26 59 15 51 51 Calm 30.03 1017 10 16.0934 N/A
7:10 pm 19:10 Sunny 79 26 61 16 54 54 Calm 30.03 1017 10 16.0934 N/A
7:31 pm 19:31 Sunny 75 24 61 16 61 61 ESE 3 6 30.03 1017 10 16.0934 N/A
7:50 pm 19:50 Sunny 73 23 61 16 65 65 SE 3 6 30.03 1017 10 16.0934 N/A
8:10 pm 20:10 Clear 72 22 61 16 69 69 SE 3 6 30.03 1017 10 16.0934 N/A
8:31 pm 20:31 Clear 68 20 61 16 78 78 SE 3 6 30.06 1018 10 16.0934 N/A
8:50 pm 20:50 Clear 68 20 61 16 78 78 ESE 5 7 30.09 1019 10 16.0934 N/A
9:10 pm 21:10 Clear 68 20 61 16 78 78 SE 6 9 30.09 1019 10 16.0934 N/A
9:31 pm 21:31 Clear 68 20 61 16 78 78 SE 5 7 30.09 1019 10 16.0934 N/A
9:50 pm 21:50 Clear 68 20 61 16 78 78 SE 6 9 30.09 1019 10 16.0934 N/A
10:10 pm 22:10 Clear 66 19 61 16 83 83 SE 5 7 30.09 1019 10 16.0934 N/A
10:31 pm 22:31 Clear 66 19 61 16 83 83 SE 5 7 30.09 1019 10 16.0934 N/A
10:50 pm 22:50 Clear 64 18 61 16 88 88 SE 5 7 30.12 1020 10 16.0934 N/A
11:10 pm 23:10 Clear 64 18 61 16 88 88 SE 3 6 30.12 1020 10 16.0934 N/A
11:31 pm 23:31 Clear 64 18 59 15 83 83 SE 3 6 30.12 1020 10 16.0934 N/A
11:50 pm 23:50 Clear 64 18 59 15 83 83 SE 3 6 30.12 1020 10 16.0934 N/A

Powered by AerisWeather